Weather History for Mineola, TX

Change the Weather History Date:

Wednesday, February 12, 2014

  Actual Average (KTYR) Record (KTYR)
Temperature  
Mean Temperature 39 °F 50 °F  
Max Temperature 48 °F 60 °F 80 °F (1909)
Min Temperature 30 °F 40 °F -8 °F (1899)
Degree Days  
Heating Degree Days 26 15  
Month to date heating degree days 197  
Since 1 July heating degree days 1675  
Cooling Degree Days 0 0  
Month to date cooling degree days 0  
Year to date cooling degree days 4  
Moisture  
Dew Point 27 °F    
Average Humidity 72    
Maximum Humidity 100    
Minimum Humidity 32    
Precipitation  
Precipitation 0.01 in 0.15 in 2.14 in (1977)
Month to date precipitation 1.56  
Year to date precipitation 4.62  
Snow  
Snow 0.00 in - - ()
Month to date snowfall  
Since 1 July snowfall  
Snow Depth -    
Sea Level Pressure  
Sea Level Pressure 30.13 in    
Wind  
Wind Speed - (North)    
Max Wind Speed -    
Max Gust Speed -    
Visibility 9 miles    
Events      
T = Trace of Precipitation, MM = Missing Value Source: NWS Daily Summary

Daily Weather History Graph

Daily Weather History Graph

Search for Another Location

Airport:

Trip Planner

Search our weather history database for the weather conditions in past years. The results will help you decide how hot, cold, wet, or windy it might be!

Date:

Astronomy

Feb. 12, 2014 Rise Set
Actual Time 7:07 AM CST 6:04 PM CST
Civil Twilight 6:42 AM CST 6:30 PM CST
Nautical Twilight 6:13 AM CST 6:59 PM CST
Astronomical Twilight 5:44 AM CST 7:28 PM CST
Moon 4:21 PM CST (2/12) 5:22 AM CST (2/12)
Length of Visible Light 11h 47m
Length of Day
10h 57m
Waxing Gibbous, 95% of the Moon is Illuminated
Feb 12
Waxing Gibbous
Feb 14
Full
Feb 22
Last Quarter
Mar 1
New
Mar 8
First Quarter

Hourly Weather History & Observations

Time (CST) Temp. Dew Point Humidity Pressure Visibility Wind Dir Wind Speed Gust Speed Precip Events Conditions
12:15 AM 32.0 °F 30.2 °F 93% 30.22 in 10.0 mi North - - N/A   Overcast
12:35 AM 32.0 °F 30.2 °F 93% 30.22 in 10.0 mi North - - N/A   Overcast
12:55 AM 32.0 °F 30.2 °F 93% 30.22 in 9.0 mi North - - N/A   Overcast
1:15 AM 32.0 °F 28.4 °F 87% 30.22 in 10.0 mi North - - N/A   Overcast
1:35 AM 32.0 °F 28.4 °F 87% 30.22 in 10.0 mi North - - N/A   Overcast
1:55 AM 32.0 °F 28.4 °F 87% 30.20 in 10.0 mi North - - N/A   Overcast
2:15 AM 32.0 °F 28.4 °F 87% 30.20 in 10.0 mi North - - N/A   Overcast
2:35 AM 32.0 °F 28.4 °F 87% 30.18 in 10.0 mi North - - N/A   Overcast
2:55 AM 32.0 °F 28.4 °F 87% 30.16 in 10.0 mi North - - N/A   Overcast
3:15 AM 32.0 °F 28.4 °F 87% 30.15 in 10.0 mi North - - N/A   Overcast
3:35 AM 32.0 °F 28.4 °F 87% 30.15 in 10.0 mi North - - N/A   Overcast
3:55 AM 32.0 °F 30.2 °F 93% 30.15 in 9.0 mi North - - N/A   Scattered Clouds
4:15 AM 30.2 °F 30.2 °F 100% 30.15 in 6.0 mi North - - N/A   Clear
4:35 AM 30.2 °F 30.2 °F 100% 30.16 in 8.0 mi North - - N/A   Clear
4:55 AM 30.2 °F 30.2 °F 100% 30.17 in 7.0 mi North - - N/A   Mostly Cloudy
5:15 AM 32.0 °F 30.2 °F 93% 30.17 in 8.0 mi North - - N/A   Overcast
5:35 AM 32.0 °F 30.2 °F 93% 30.18 in 8.0 mi North - - N/A   Overcast
5:55 AM 32.0 °F 30.2 °F 93% 30.18 in 8.0 mi North - - N/A   Overcast
6:15 AM 32.0 °F 30.2 °F 93% 30.17 in 7.0 mi North - - N/A   Overcast
6:35 AM 32.0 °F 30.2 °F 93% 30.17 in 7.0 mi North - - N/A   Overcast
6:55 AM 32.0 °F 30.2 °F 93% 30.17 in 6.0 mi North - - N/A   Mostly Cloudy
7:15 AM 32.0 °F 30.2 °F 93% 30.19 in 5.0 mi North - - N/A   Mostly Cloudy
7:35 AM 32.0 °F 32.0 °F 100% 30.19 in 5.0 mi North - - 0.01 in   Overcast
7:55 AM 32.0 °F 32.0 °F 100% 30.20 in 6.0 mi North - - 0.01 in   Overcast
8:15 AM 32.0 °F 32.0 °F 100% 30.20 in 7.0 mi North - - N/A   Overcast
8:35 AM 33.8 °F 32.0 °F 93% 30.20 in 7.0 mi North - - N/A   Overcast
8:55 AM 33.8 °F 32.0 °F 93% 30.21 in 7.0 mi North - - N/A   Overcast
9:15 AM 33.8 °F 32.0 °F 93% 30.21 in 7.0 mi North - - N/A   Mostly Cloudy
9:35 AM 35.6 °F 32.0 °F 87% 30.22 in 8.0 mi North - - N/A   Mostly Cloudy
9:55 AM 35.6 °F 32.0 °F 87% 30.22 in 9.0 mi North - - N/A   Overcast
10:15 AM 35.6 °F 32.0 °F 87% 30.21 in 7.0 mi North - - N/A   Overcast
10:35 AM 37.4 °F 32.0 °F 81% 30.20 in 9.0 mi North - - N/A   Overcast
10:55 AM 37.4 °F 30.2 °F 75% 30.19 in 10.0 mi North - - N/A   Overcast
11:15 AM 39.2 °F 28.4 °F 65% 30.19 in 9.0 mi North - - N/A   Overcast
11:35 AM 39.2 °F 23.0 °F 52% 30.19 in 10.0 mi North - - N/A   Partly Cloudy
11:55 AM 39.2 °F 24.8 °F 56% 30.18 in 10.0 mi North - - N/A   Clear
12:15 PM 39.2 °F 26.6 °F 61% 30.17 in 9.0 mi North - - N/A   Clear
12:35 PM 42.8 °F 26.6 °F 53% 30.16 in 10.0 mi North - - N/A   Clear
12:55 PM 42.8 °F 21.2 °F 42% 30.14 in 10.0 mi North - - N/A   Clear
1:15 PM 44.6 °F 19.4 °F 37% 30.12 in 10.0 mi North - - N/A   Clear
1:35 PM 46.4 °F 19.4 °F 34% 30.11 in 10.0 mi North - - N/A   Clear
1:55 PM 46.4 °F 19.4 °F 34% 30.10 in 10.0 mi North - - N/A   Clear
2:15 PM 46.4 °F 19.4 °F 34% 30.08 in 10.0 mi North - - N/A   Clear
2:35 PM 46.4 °F 19.4 °F 34% 30.08 in 10.0 mi North - - N/A   Clear
2:55 PM 48.2 °F 19.4 °F 32% 30.06 in 10.0 mi North - - N/A   Clear
3:15 PM 48.2 °F 19.4 °F 32% 30.06 in 10.0 mi North - - N/A   Clear
3:35 PM 48.2 °F 19.4 °F 32% 30.06 in 10.0 mi North - - N/A   Clear
3:55 PM 48.2 °F 19.4 °F 32% 30.06 in 10.0 mi North - - N/A   Clear
4:15 PM 48.2 °F 19.4 °F 32% 30.05 in 9.0 mi North - - N/A   Clear
4:35 PM 48.2 °F 19.4 °F 32% 30.06 in 9.0 mi North - - N/A   Clear
4:55 PM 48.2 °F 21.2 °F 34% 30.05 in 10.0 mi North - - N/A   Clear
5:15 PM 48.2 °F 21.2 °F 34% 30.06 in 10.0 mi North - - N/A   Clear
5:35 PM 48.2 °F 21.2 °F 34% 30.06 in 10.0 mi North - - N/A   Clear
5:55 PM 46.4 °F 23.0 °F 40% 30.07 in 10.0 mi North - - N/A   Clear
6:15 PM 46.4 °F 23.0 °F 40% 30.07 in 10.0 mi North - - N/A   Clear
6:35 PM 41.0 °F 28.4 °F 61% 30.08 in 10.0 mi North - - N/A   Clear
6:55 PM 39.2 °F 26.6 °F 61% 30.08 in 10.0 mi North - - N/A   Clear
7:15 PM 39.2 °F 26.6 °F 61% 30.08 in 10.0 mi North - - N/A   Clear
7:35 PM 37.4 °F 28.4 °F 70% 30.09 in 10.0 mi North - - N/A   Clear
7:55 PM 37.4 °F 28.4 °F 70% 30.08 in 10.0 mi North - - N/A   Clear
8:15 PM 37.4 °F 28.4 °F 70% 30.08 in 10.0 mi North - - N/A   Clear
8:35 PM 35.6 °F 30.2 °F 81% 30.08 in 10.0 mi North - - N/A   Clear
8:55 PM 39.2 °F 28.4 °F 65% 30.08 in 10.0 mi North - - N/A   Clear
9:15 PM 37.4 °F 30.2 °F 75% 30.08 in 10.0 mi North - - N/A   Clear
9:35 PM 33.8 °F 30.2 °F 87% 30.08 in 10.0 mi North - - N/A   Clear
9:55 PM 33.8 °F 30.2 °F 87% 30.07 in 10.0 mi North - - N/A   Clear
10:15 PM 33.8 °F 30.2 °F 87% 30.07 in 10.0 mi North - - N/A   Clear
10:35 PM 32.0 °F 30.2 °F 93% 30.07 in 10.0 mi North - - N/A   Clear
10:55 PM 33.8 °F 30.2 °F 87% 30.06 in 10.0 mi North - - N/A   Clear
11:15 PM 32.0 °F 30.2 °F 93% 30.07 in 10.0 mi North - - N/A   Clear
11:35 PM 32.0 °F 28.4 °F 87% 30.06 in 10.0 mi North - - N/A   Clear
11:55 PM 32.0 °F 30.2 °F 93% 30.06 in 10.0 mi North - - N/A   Clear